Location: Vancouver
(49.2500°N, 123.1330°W)
Time: 01:29:14
(UTC-07:00)

ERS-2 - Visible Passes

Search period start: 24 October 2014 00:00
Search period end: 02 November 2014 23:00
Orbit: 528 x 534 km, 98.5° (Epoch: 24 October)

Date Brightness Start Highest point End Pass type
(mag) Time Alt. Az. Time Alt. Az. Time Alt. Az.
24 Oct 5.1 07:12:48 10° E 07:15:02 15° ENE 07:17:17 10° NNE visible
25 Oct 5.3 07:03:31 10° E 07:05:05 12° ENE 07:06:39 10° NNE visible
01 Nov 5.0 07:25:23 10° ESE 07:28:01 18° ENE 07:30:41 10° NNE visible
02 Nov 5.1 06:15:45 10° E 06:17:54 15° ENE 06:20:03 10° NNE visible
